Weather observations for the past three days for
Cincinnati, Cincinnati Municipal Airport Lunken Field
Imperial (Metric)
Date Time (edt) Wind (mph) Vis. (mi.) Weather Sky Cond. Temperature (ºF) Relative Humidity Wind Chill (°F) Heat Index (°F) Pressure Precipitation (in)
Air Dwpt 6 hour altimeter (in) sea level (mb) 1 hr 3 hr 6 hr
Max. Min.
23 06:53 Calm 0.25 Fog OVC002 66.9 66.9 100% 30.04 1016.7
23 05:53 Calm 0.50 Fog SCT003 BKN050 66.9 66.9 100% 30.03 1016.5
23 04:53 Calm 3.00 Fog/Mist FEW060 SCT075 68 66.9 96% 30.02 1016.0
23 03:53 Calm 4.00 Fog/Mist SCT042 69.1 68 96% 30.01 1015.9
23 02:53 Calm 5.00 Fog/Mist OVC044 69.1 68 96% 30.02 1016.2
23 01:53 Calm 5.00 Fog/Mist CLR 68 66.9 73.9 66.9 96% 30.03 1016.3 1.6
23 00:53 Calm 3.00 Fog/Mist SCT044 68 68 100% 30.03 1016.6
22 23:53 Calm 4.00 Fog/Mist CLR 69.1 68 96% 30.02 1016.3
22 22:53 Calm 10.00 Fair CLR 69.1 66.9 93% 30.02 1016.2 1.6
22 21:53 NE 6 8.00 Thunderstorm in Vicinity BKN050 OVC060 70 68 93% 30 1015.6 1.43
22 20:53 S 5 4.00 Thunderstorm Heavy Rain Fog/Mist SCT032 OVC044 73.9 70 88% 29.99 1015.2 0.17
22 19:53 Vrbl 3 10.00 Partly Cloudy SCT060 81 69.1 87.1 81 67% 84 29.96 1014.2
22 18:53 Calm 10.00 Mostly Cloudy BKN046 BKN095 82.9 66 57% 85 29.95 1013.9
22 17:53 Calm 10.00 Overcast OVC047 84 64.9 53% 86 29.96 1014.0
22 16:53 Vrbl 6 10.00 Mostly Cloudy SCT042 BKN050 84.9 66 53% 87 29.97 1014.4
22 15:53 Calm 10.00 Overcast OVC044 86 64.9 49% 88 29.99 1015.2
22 14:53 Vrbl 5 10.00 Overcast OVC045 82.9 64.9 55% 85 30 1015.5
22 13:53 Calm 10.00 Mostly Cloudy BKN027 82 66 82 66.9 58% 84 30.01 1015.8 0.01
22 12:53 Vrbl 3 10.00 Mostly Cloudy BKN027 79 64.9 62% 81 30.02 1016.1
22 11:53 Calm 10.00 Fair CLR 78.1 68 71% 80 30.03 1016.5
22 10:53 Calm 8.00 Partly Cloudy SCT060 72 66 82% 30.03 1016.5 0.01
22 09:53 N 3 8.00 Partly Cloudy SCT060 70 66 87% 30.04 1016.8
22 08:53 NE 5 7.00 Light Rain SCT050 BKN060 BKN100 68 64.9 90% 30.04 1017.0 0.01
22 07:53 NE 5 5.00 Light Rain Fog/Mist SCT110 66.9 64 73.9 66 91% 30.04 1016.7 0.02 0.08
22 06:53 NE 6 10.00 Overcast BKN060 BKN080 OVC110 66.9 63 87% 30.03 1016.5 0.03
22 05:53 NE 5 9.00 Overcast OVC060 70 66 87% 30.05 1017.0 0.02
22 04:53 N 10 G 17 7.00 Light Rain OVC055 72 63 73% 30.03 1016.4 0.01 0.01
22 03:53 N 3 10.00 Overcast OVC050 72 63 73% 30.01 1015.8
22 02:53 Calm 10.00 Overcast BKN048 OVC055 69.1 64.9 87% 30.01 1015.9
22 01:53 Calm 10.00 Mostly Cloudy BKN060 BKN090 70 64.9 80.1 68 84% 30.03 1016.4
22 00:53 Calm 10.00 Mostly Cloudy SCT085 BKN110 71.1 64.9 81% 30.04 1016.7
21 23:53 Calm 10.00 A Few Clouds FEW065 71.1 66 84% 30.04 1016.8
21 22:53 N 5 10.00 Partly Cloudy FEW080 SCT100 75 63 66% 77 30.05 1017.0
21 21:53 NE 5 10.00 Mostly Cloudy BKN080 73.9 64 71% 30.05 1017.1
21 20:53 NE 7 10.00 Partly Cloudy FEW085 SCT110 77 64 64% 79 30.03 1016.6
21 19:53 NE 7 10.00 Fair CLR 80.1 64.9 84 80.1 60% 82 30.03 1016.5
21 18:53 NE 8 10.00 Mostly Cloudy BKN100 82 64 55% 84 30.02 1016.2
21 17:53 NE 7 10.00 Partly Cloudy SCT110 82.9 64.9 55% 85 30.03 1016.5
21 16:53 NE 5 10.00 Mostly Cloudy BKN100 82.9 63 51% 84 30.05 1017.1
21 15:53 N 3 10.00 Mostly Cloudy SCT043 BKN065 BKN075 82.9 64 53% 84 30.07 1017.8
21 14:53 Calm 10.00 Fair CLR 82 62.1 51% 83 30.07 1018.0
21 13:53 N 3 10.00 Partly Cloudy FEW065 SCT080 82.9 63 82.9 68 51% 84 30.08 1018.4
21 12:53 Calm 10.00 Partly Cloudy SCT085 79 62.1 56% 80 30.09 1018.6
21 11:53 E 3 10.00 Mostly Cloudy FEW070 BKN100 78.1 62.1 58% 80 30.1 1018.8
21 10:53 N 5 10.00 Mostly Cloudy SCT070 BKN100 75 61 62% 77 30.1 1018.9
21 09:53 NE 5 10.00 Overcast BKN070 OVC085 73 60.1 64% 30.1 1019.0
21 08:53 NE 6 10.00 Mostly Cloudy BKN075 71.1 60.1 68% 30.1 1018.8
21 07:53 Calm 10.00 Overcast SCT060 OVC080 68 61 68 63 78% 30.09 1018.4
21 06:53 E 3 9.00 Partly Cloudy FEW060 SCT100 64.9 60.1 84% 30.09 1018.3
21 05:53 N 5 9.00 Partly Cloudy SCT085 64 61 90% 30.09 1018.3
21 04:53 Calm 10.00 A Few Clouds FEW070 64.9 62.1 90% 30.08 1018.2
21 03:53 Calm 10.00 Overcast FEW065 OVC090 66.9 62.1 84% 30.09 1018.4
21 02:53 Calm 9.00 Overcast OVC075 64.9 62.1 90% 30.1 1018.6
21 01:53 Calm 10.00 Fair CLR 64 61 82.9 64 90% 30.09 1018.5
21 00:53 Calm 10.00 Fair CLR 66 61 84% 30.09 1018.3
20 23:53 Calm 10.00 Fair CLR 66.9 61 81% 30.08 1018.2
20 22:53 Calm 10.00 Fair CLR 69.1 61 76% 30.09 1018.4
20 21:53 Calm 10.00 Fair CLR 70 60.1 71% 30.08 1018.1
20 20:53 N 6 10.00 Fair CLR 78.1 57 48% 79 30.06 1017.5
20 19:53 NW 7 10.00 Fair CLR 82.9 57.9 88 82.9 43% 83 30.05 1017.3
20 18:53 N 7 10.00 Fair CLR 84 57.9 41% 83 30.05 1017.1
20 17:53 W 5 10.00 Fair CLR 86 57.9 39% 85 30.06 1017.6
20 16:53 Vrbl 3 10.00 Fair CLR 87.1 57.9 37% 86 30.06 1017.6
20 15:53 NW 3 10.00 A Few Clouds FEW060 87.1 57 36% 86 30.07 1017.9
20 14:53 Calm 10.00 A Few Clouds FEW060 87.1 57.9 37% 86 30.09 1018.4
20 13:53 Calm 10.00 Fair CLR 84.9 57 87.1 64 39% 84 30.1 1019.0
20 12:53 N 6 10.00 Fair CLR 84 55.9 38% 83 30.11 1019.3
20 11:53 E 3 10.00 Fair CLR 82 59 46% 82 30.12 1019.5
20 10:53 NE 3 10.00 Fair CLR 78.1 60.1 54% 79 30.12 1019.6
20 09:53 E 5 10.00 Fair CLR 73 60.1 64% 30.12 1019.5
20 08:53 NE 5 10.00 Fair CLR 68 59 73% 30.12 1019.6
20 07:53 Calm 10.00 Fair CLR 64 60.1 64 59 87% 30.12 1019.4
Date Time (edt) Wind (mph) Vis. (mi.) Weather Sky Cond. Air Dwpt Max. Min. Relative Humidity Wind Chill (°F) Heat Index (°F) altimeter (in) sea level (mb) 1 hr 3 hr 6 hr
6 hour
Temperature (ºF) Pressure Precipitation (in)